Regional Weather Roundup
Issued by NWS Midland/Odessa, TX

Current Version | Previous Version | Text Only | Print | Product List | Glossary On
Versions: 1 2 3 4 5 6 7 8 9 10 11 12 13 14 15 16 17 18 19 20 21 22 23 24 25 26 27 28 29 30 31 32 33 34 35 36 37 38 39 40 41 42 43 44 45 46 47 48 49 50
000
ASUS44 KMAF 312310
RWRMAF
MIDLAND AREA WEATHER ROUNDUP
NATIONAL WEATHER SERVICE MIDLAND TX
600 PM CDT TUE MAR 31 2020

...IN SOUTHWEST TEXAS AND SOUTHEAST NEW MEXICO...

CITY           SKY/WX    TMP DP  RH WIND       PRES   REMARKS
ALPINE         FAIR      75  14  10 SE7       30.10F
ANDREWS        FAIR      78  22  12 W8        29.99F
ARTESIA        FAIR      75  27  16 SE18      29.99F
BIG SPRING     FAIR      74  35  24 CALM      30.00F
CARLSBAD       FAIR      76  21  12 SE14G21   29.97F
DRYDEN           N/A     82  21  10 VRB6      30.00
FORT STOCKTON  FAIR      76  18  11 CALM      30.01F
GUAD PASS      FAIR      69  15  12 SW15      30.09F
HOBBS          SUNNY     75  16  10 SW8G16    30.00F
LAMESA         NOT AVBL
MARFA          FAIR      71  16  12 S10       30.09F
MIDLAND AIRPK  FAIR      75  30  19 S8        30.00F
MIDLAND INTL   FAIR      78  26  14 S7        30.00F
ODESSA         FAIR      76  26  15 S12G18    30.00F
PECOS          FAIR      78  15   9 N3        29.98F
PRESIDIO       FAIR      81  14   8 NW5       29.99F
SEMINOLE       FAIR      77  24  14 W8        30.03F
SNYDER         FAIR      69  40  34 CALM      30.03F
WINK           FAIR      78  18  10 W7        29.97F
$$
...OTHER STATIONS IN TEXAS...

CITY           SKY/WX    TMP DP  RH WIND       PRES   REMARKS
ABILENE        FAIR      70  47  43 E5        30.02F
AMARILLO       FAIR      69  37  30 SE18G25   29.96F
AUSTIN         FAIR      71  53  52 NE8       30.00F
BROWNSVILLE    FAIR      80  59  48 E18       29.92R
CORPUS CHRISTI PTSUNNY   85  50  29 NE13      29.93R
DALLAS FTW     FAIR      66  47  50 N6        30.01F
DEL RIO        FAIR      87  26  11 N5        29.94
EL PASO        PTSUNNY   74  15  10 S5        30.00F
HOUSTON INT    FAIR      73  52  47 N10       29.97R
LUBBOCK        FAIR      70  41  34 SE20      29.99F
SAN ANGELO     FAIR      74  44  34 E8        30.02F
SAN ANTONIO    PTSUNNY   78  48  34 N8        29.99S
WACO           FAIR      68  51  54 N9        30.02F
WICHITA FALLS  FAIR      64  44  48 SW14      29.99S
$$
...OTHER LOCATIONS IN NEW MEXICO...

CITY           SKY/WX    TMP DP  RH WIND       PRES   REMARKS
ALAMOGORDO     FAIR      72  16  12 SE5       30.03F
ALBUQUERQUE    PTSUNNY   67  17  14 SE6       30.03F
CANNON AFB     FAIR      72  22  15 S20       29.98F
CLOVIS         FAIR      71  27  19 S15       29.99F
HOLLOMAN AFB   FAIR      73  17  12 CALM      30.02F
ROSWELL        FAIR      76  24  14 S16       29.97F
RUIDOSO        FAIR      64  10  12 N7        30.12F
SANTA FE       FAIR      64  15  15 SW14G28   30.03F
TRUTH OR CONSE FAIR      72  15  11 S13       30.01F
TUCUMCARI      FAIR      76  22  13 W5        29.89F
$$



USA.gov is the U.S. government's official web portal to all federal, state and local government web resources and services.